Погода в Шаиме

Погода в Шаиме : погода сейчас, прогноз погоды и архив. Всё, что Вы хотите узнать о погоде в Шаиме!

Хотите узнать прогноз погоды в Шаиме? Тогда Вам сюда: Погода в Шаиме

Поиск расширенной информации на нашем сайте:

Другие новости

Новости СМИ2

Главная страница сайта

Новости сайта

03.07.2017

Напоминаем, что на нашем специализированном сайте Метеоцентр.Азия вы можете получить высокодетализированные автоматические прогнозы погоды по пунктам России, СНГ и мира в авиационном формате (включающие направление и скорость ветра, видимость, явления погоды, количество и форму облачности, нижнюю и верхнюю границу облачности).


Погода в Шаиме - сегодня

Время (UTC), дата Ветер
(°,м/с) 
Видим.   Явления Облачность Т
(°С)
Тd
(°С)
f(%) Тe
(°С)
Pmin
(гПа)
dP
(гПа)
Po
(мм)
O2
(г/м3)
Тmin Tmax R s Состояние
почвы
15 19.11.17 210 (ЮЗ) 25000 м  [диам. изморози 1 мм]  8/0 верхняя 
[Ci fib]
-3.8 -4.8 93 -6  1019.7  0.7  760  311    -0.5  0.2     
18 19.11.17 220 (ЮЗ) 26000 м  [диам. изморози 0 мм]  10/0 верхняя 
[Ci fib]
-2.2 -3.3 92 -4  1020  0.4  760  309           
21 19.11.17 220 (ЮЗ) 25000 м    10/0 верхняя 
[Ci fib]
-1.2 -2.6 90 -3  1020.7  0.7  761  308           
00 20.11.17 220 (ЮЗ) 24000 м    10/0 верхняя 
[Ci fib]
-1.2 -2.7 90 -3  1020.8  0.1  761  308           
03 20.11.17 200 (Ю) 23000 м    10/0 средняя 
[Ac As]
-1.3 -2.4 92 -3  1020.6  -0.2  760  308  -4.3      равномерный
сухой снег
100% 
06 20.11.17 220 (ЮЗ) 24000 м    10/8 600 м верхняя 
[Sc|Cs]
-0.3 -1.6 91 -3  1020.9  0.3  761  307           
09 20.11.17 220 (ЮЗ) 25000 м    9/9 1000 м 
[Sc]
+0.3 -1.4 88 -1  1021.3  0.4  761  306           
12 20.11.17 190 (Ю) 25000 м    10/4 1000 м верхняя 
[Sc|Cs]
-2.9 -3.9 93 -4  1021.9  0.5  761  311           
15 20.11.17 180 (Ю) 24000 м    10/0 верхняя 
[Ci fib]
-4.5 -5.1 96 -6  1021.5  -0.4  761  312    +0.5       
18 20.11.17 180 (Ю) 24000 м    10/0 средняя, верхняя 
[Ac trans|Ci fib]
-4 -4.8 94 -5  1020.6  -0.9  760  311           
21 20.11.17 170 (Ю) 6000 м  слаб. снег  10/8 600 м средняя 
[Sc|As op]
-2.3 -3.2 94 -4  1008.6  -1.9  759  309           
00 21.11.17 200 (Ю) 5000 м  слаб. снег  10/8 600 м средняя 
[Sc|As op]
-0.7 -1.6 94 -3  1017.8  -0.8  758  307           
03 21.11.17 220 (ЮЗ) 20000 м  {снег}  10/6 600 м средняя 
[Sc|As trans]
+0.2 -0.8 93 -2  1018.1  0.3  759  306  -5.3    равномерный
сухой снег
100% 
06 21.11.17 220 (ЮЗ) 24000 м  {снег}  10/3 600 м средняя, верхняя 
[Sc|Ac trans|Cc]
+0 -1.2 92 -2  1019.2  1.1  759  306           
09 21.11.17 220 (ЮЗ) 26000 м    10/3 600 м средняя, верхняя 
[Sc|Ac trans|Cc]
+1.4 -0.2 89 1020.5  1.3  760  305           
12 21.11.17 190 (Ю) 25000 м    10/3 600 м средняя, верхняя 
[Sc|Ac trans|Ci sp]
-0.2 -1 94 -1  1021.4  0.9  761  307           
15 21.11.17 180 (Ю) 7000 м  дымка  10/3 600 м средняя 
[Sc|Ac und]
-0.2 -0.7 96 -1  1021.2  -0.2  761  307    +1.5       
18 21.11.17 120 (ЮВ) 6000 м  дымка  10/10 600 м 
[Sc]
+0.2 -0.3 96 -1  1019.8  -1.4  760  306           
21 21.11.17 150 (ЮВ) 5000 м  дымка  10/10 600 м 
[St]
-0.1 -0.8 95 -2  1018.8  -1  759  306           
00 22.11.17 150 (ЮВ) 20000 м    10/4 600 м верхняя 
[Sc|Cs]
-2.3 -3.2 94 -3  1018.2  -0.6  759  309           
03 22.11.17 160 (Ю) 22000 м    10/6 600 м верхняя 
[Sc|Cs]
-2.7 -3.9 91 -4  1018.3  759  309  -2.7      равномерный
мокрый или
старый снег
100% 
06 22.11.17 180 (Ю) 25000 м    6/3 600 м верхняя 
[Sc|Ci fib]
-3.1 -4.5 90 -4  1018.6  0.3  759  310  -3.4         
09 22.11.17 180 (Ю) 27000 м    4/0 верхняя 
[Ci fib]
-1.6 -4 84 -4  1018.6  759  308           
12 22.11.17 130 (ЮВ) 26000 м    3/0 верхняя 
[Ci fib]
-5.2 -6 94 -5  1019.3  0.7  759  313           
15 22.11.17 140 (ЮВ) 25000 м    3/0 верхняя 
[Ci fib]
-8.2 -9.2 92 -8  1019.5  759  316    -1.6       
Время (UTC), дата Ветер
(°,м/с) 
Видим.   Явления Облачность Т
(°С)
Тd
(°С)
f(%) Тe
(°С)
Pmin
(гПа)
dP
(гПа)
Po
(мм)
O2
(г/м3)
Тmin Tmax R s Состояние
почвы

Для получения пояснительной информации подведите курсор к названию столбца.

ПОГОДА в Шаиме - архив

Всё, что Вы хотите узнать о погоде в Шаиме - удобно и подробно!

Выберите нужную дату (начиная с 1 января 2015* года) и нажмите кнопку "Найти".
Будут отображены архивные сводки погоды по пункту Шаим, начиная с указанной даты.


Отображать данные в формате CSV (для использования в таблицах Excel)


Внимание! Наш архив погоды предназначен исключительно для личного некоммерческого использования в познавательных целях. Если Вам необходимы официальные справки о состоянии погоды (для производственных, юридических, коммерческих и т.п. целей), обращайтесь в органы Росгидромета.

*Примечание: данная дата относится к архиву по метеостанциям СССР (Россия, СНГ, Балтия).
Архив по метеостанциям Зарубежной Европы и Азии (кроме Китая) хранится 10 дней, по другим регионам земного шара (Китай, Африка, Америка, Австралия, Океания) - 1 день.

Шаим - район местоположения метеостанции


Название, широта, долгота, высота метеостанции:
Шаим 60.3°ш. 64.2°д. 53 м над ур. моря [Российская Федерация]

Дополнительная информация

В oтличие oт бoльшинства пoгoдных сайтoв мы публикуем пoдрoбную метеoинфoрмацию в детальнoм прoфессиoнальнoм фoрмате.

Характеристики температуры и влажнoсти вoздуха измеряются на высoте 2 м в тени вдали oт зданий и деревьев.
Скoрoсть ветра измеряется на высoте 10 м (на урoвне рoста челoвека скoрoсть ветра ниже в 1.5-2 раза). Если метеoстанция нахoдится в гoрoде или в лесу, тo скoрoсть ветра занижена на 2-4 м/с пo сравнению с oткрытым местoм. Скoрoсть ветра над акватoриями крупных рек и oзёр, а также на вершинах хoлмoв на 2-5 м/с выше, чем в oбычных услoвиях.
Атмoсфернoе давление в разных тoчках местнoсти мoжет значительнo oтличаться oт давления на метеoстанции, в зависимoсти oт услoвий рельефа (при пoдъёме на 10 м давление пoнижается примернo на 1 мм рт.ст.).